Preview of NWS' New Version of Forecast
This preview is not operational and should not be used for support decisions.

Regional Weather Roundup (RWR)

Issued by National Weather Service (NWS)

                            
414 
ASUS45 KREV 212310
RWRNV 
NEVADA REGIONAL WEATHER ROUNDUP
NATIONAL WEATHER SERVICE RENO NV
400 PM PDT THU JUN 21 2018

NOTE: "FAIR" INDICATES FEW OR NO CLOUDS BELOW 12,000 FEET WITH NO
SIGNIFICANT WEATHER AND/OR OBSTRUCTIONS TO VISIBILITY.

NVZ001-003-004-220000-
WESTERN NEVADA
  
CITY           SKY/WX    TMP DP  RH WIND       PRES   REMARKS
RENO           SUNNY     91  19   7 W14G24    30.07F                  
CARSON CITY    FAIR      86  19   8 W16G23    30.11F                  
MINDEN         FAIR      90  27  10 W18       30.10F                  
FALLON         MOSUNNY   92  22   8 N8G20     30.03F                  
LOVELOCK       SUNNY     89  24   9 SE9       30.04F                  
$$

NVZ002-CAZ072-073-220000-
NORTHERN AND CENTRAL SIERRA
  
CITY           SKY/WX    TMP DP  RH WIND       PRES   REMARKS
S. LAKE TAHOE  SUNNY     77  28  16 S14G20    30.22F                  
TRUCKEE        SUNNY     79  27  14 SW9G16    30.22S                  
SQUAW VLY 8000   N/A     66  30  26 NW8         N/A                   
BLUE CANYON    SUNNY     75  31  19 S7        30.22S                  
MAMMOTH LAKES  FAIR      83  15   8 W12G26    30.25F                  
BRIDGEPORT     FAIR      82  17   9 SW13      30.22S                  
$$

NVZ030-031-036-220000-
NORTHERN NEVADA
  
CITY           SKY/WX    TMP DP  RH WIND       PRES   REMARKS
ELKO           SUNNY     87  22   9 W17G29    30.09F                  
WINNEMUCCA     SUNNY     89  16   7 W15G22    30.08F                  
WENDOVER       SUNNY     92  15   6 NW28G35   29.97F                  
$$

NVZ035-037-220000-
CENTRAL NEVADA
  
CITY           SKY/WX    TMP DP  RH WIND       PRES   REMARKS
ELY            SUNNY     89  10   5 NW17G25   30.09F                  
EUREKA           N/A     88   8   5 W15G28    30.11F                  
$$

NVZ013-014-220000-
SOUTH CENTRAL NEVADA
  
CITY           SKY/WX    TMP DP  RH WIND       PRES   REMARKS
TONOPAH        SUNNY     95  12   5 W14G24    30.05F                  
$$

NVZ017-020-022-220000-
SOUTHERN NEVADA
  
CITY           SKY/WX    TMP DP  RH WIND       PRES   REMARKS
LAS VEGAS      MOSUNNY  113  20   4 SW9       29.77F                  
N. LAS VEGAS   SUNNY    111   9   2 S10       29.76F                  
NELLIS AFB     SUNNY    110  19   4 SE9G20    29.73                   
HENDERSON      SUNNY    109  23   5 SW15      29.82F                  
MERCURY        SUNNY    108  14   3 SW21G28   29.87F                  
$$